User: anonymous   Login
Location: Stonelick Lake State Park
(39.2170°N, 84.0850°W)
Time: 08:59:06
(UTC-04:00)
Language:

Abrixas rocket - Orbit

View from above orbital plane
View from above orbital plane
View from above satellite
View from above satellite

Ground track
Ground track

The orbit data is extracted from the following two-line orbital elements,

1 25723U 99022C   14303.12478461  .00018708  00000-0  57593-3 0  7887
2 25723 048.4220 185.6804 0016868 141.1381 015.2056 15.33445761857841
Epoch (UTC): 30 October 2014 02:59:41
Eccentricity: 0.0016868
inclination: 48.4220°
perigee height: 454 km
apogee height: 477 km
right ascension of ascending node: 185.6804°
argument of perigee: 141.1381°
revolutions per day: 15.33445761
mean anomaly at epoch: 15.2056°
orbit number at epoch: 85784

The dashed part of the orbit path shows where the satellite is in the earth's shadow,  

DLR